This is the latest recevied weather packets stored in our database for station/object KD8BMB. If no packets are shown the sender has not sent any weather packets the latest 10 day(s).
| Time | Temp. | Humidity | Pressure | Rain* | Wind** | Luminosity | Snow |
|---|---|---|---|---|---|---|---|
| 1777762303 | 10° C | 40% | 1015.3 hPa | 0 mm | - | 170 W/m² | - |
| 1777761998 | 10° C | 40% | 1015.4 hPa | 0 mm | - | 189 W/m² | - |
| 1777761696 | 10° C | 40% | 1015.2 hPa | 0 mm | - | 212 W/m² | - |
| 1777761393 | 10° C | 40% | 1015 hPa | 0 mm | - | 216 W/m² | - |
| 1777761091 | 10.56° C | 41% | 1015.2 hPa | 0 mm | - | 255 W/m² | - |
| 1777760789 | 11.11° C | 37% | 1015.3 hPa | 0 mm | - | 267 W/m² | - |
| 1777760485 | 10.56° C | 38% | 1015.2 hPa | 0 mm | - | 271 W/m² | - |
| 1777760180 | 9.44° C | 42% | 1015.3 hPa | 0 mm | - | 261 W/m² | - |
| 1777759878 | 8.89° C | 42% | 1015.4 hPa | 0 mm | - | 79 W/m² | - |
| 1777759575 | 8.89° C | 40% | 1015.3 hPa | 0 mm | - | 71 W/m² | - |
| 1777759271 | 9.44° C | 40% | 1015.6 hPa | 0 mm | - | 73 W/m² | - |
| 1777758968 | 9.44° C | 42% | 1015.3 hPa | 0 mm | - | 116 W/m² | - |
| 1777758665 | 9.44° C | 42% | 1015.6 hPa | 0 mm | - | 135 W/m² | - |
| 1777758361 | 9.44° C | 39% | 1015.4 hPa | 0 mm | - | 175 W/m² | - |
| 1777758059 | 9.44° C | 42% | 1015.4 hPa | 0 mm | - | 173 W/m² | - |
| 1777757756 | 9.44° C | 40% | 1015.6 hPa | 0 mm | - | 156 W/m² | - |
| 1777757453 | 9.44° C | 40% | 1015.4 hPa | 0 mm | - | 230 W/m² | - |
| 1777757152 | 8.89° C | 40% | 1015.5 hPa | 0 mm | - | 131 W/m² | - |
| 1777756850 | 8.89° C | 41% | 1015.5 hPa | 0 mm | - | 126 W/m² | - |
| 1777756545 | 9.44° C | 40% | 1015.4 hPa | 0 mm | - | 146 W/m² | - |
| 1777756243 | 9.44° C | 39% | 1015.6 hPa | 0 mm | - | 205 W/m² | - |
| 1777755939 | 9.44° C | 39% | 1015.6 hPa | 0 mm | - | 268 W/m² | - |
| 1777755636 | 9.44° C | 39% | 1015.7 hPa | 0 mm | - | 199 W/m² | - |
| 1777755333 | 8.89° C | 40% | 1015.8 hPa | 0 mm | - | 462 W/m² | - |
| 1777755030 | 9.44° C | 38% | 1015.8 hPa | 0 mm | - | 200 W/m² | - |
* Rain latest hour (hover to see other rain measurements)
** Current wind speed in m/s (hover to see current wind gust speed)